Regional Weather Roundup
Issued by NWS Mobile, AL

Home | Current Version | Previous Version | Text Only | Print | Product List | Glossary On
Versions: 1 2 3 4 5 6 7 8 9 10 11 12 13 14 15 16 17 18 19 20 21 22 23 24 25 26 27 28
000
ASUS44 KMOB 261412
RWRMOB
REGIONAL WEATHER ROUNDUP
NATIONAL WEATHER SERVICE MOBILE AL
900 AM CDT TUE JUL 26 2016

NOTE: "FAIR" INDICATES FEW OR NO CLOUDS BELOW 12,000 FEET WITH NO
      SIGNIFICANT WEATHER AND/OR OBSTRUCTIONS TO VISIBILITY.

  * THESE STATIONS ARE PART OF THE UNIVERSITY OF SOUTH ALABAMA
    MESONET AND ARE NOT UNDER NWS OR FAA QUALITY CONTROL.

ALZ061>064-261500-
COASTAL ALABAMA

CITY           SKY/WX    TMP DP  RH WIND       PRES   REMARKS
MOBILE REG APT PTSUNNY   84  76  76 E12       29.98S
BROOKLEY FIELD MOSUNNY   84  78  82 E15       29.98S HX  95
USA CAMPUS*    NOT AVBL
DOG RIVER*     NOT AVBL


CITY           SKY/WX    TMP DP  RH WIND       PRES   REMARKS
MOUNT VERNON*  NOT AVBL
SARALAND*      NOT AVBL
BAY MINETTE*   NOT AVBL
LOXLEY*        NOT AVBL
ROBERTSDALE*   NOT AVBL
FAIRHOPE*      NOT AVBL
ELBERTA*       NOT AVBL
FOLEY*         NOT AVBL
GRAND BAY*     NOT AVBL
DAUPHIN ISLND* NOT AVBL
BON SCOUR NWR* NOT AVBL
GULF SHORES    PTSUNNY   84  78  81 S8G16     29.98R

$$

ALZ051>060-261500-
INTERIOR SOUTHWEST AND SOUTH CENTRAL ALABAMA

CITY           SKY/WX    TMP DP  RH WIND       PRES   REMARKS
GREENVILLE     NOT AVBL
EVERGREEN      SUNNY     83  75  77 SE10      30.03S
CASTLEBERRY*   NOT AVBL
ATMORE*        NOT AVBL
DIXIE*         NOT AVBL
ANDALUSIA/OPP  SUNNY     87  74  64 E9        30.03S HX  95
ANDALUSIA*     NOT AVBL
FLORALA APT    LGT RAIN  78  76  93 SE5       30.05R FOG
FLORALA*       NOT AVBL

$$

FLZ001>006-261500-
WESTERN FLORIDA PANHANDLE

CITY           SKY/WX    TMP DP  RH WIND       PRES   REMARKS
PENSACOLA      CLOUDY    81  78  91 NE6       29.99R
NAS PENSACOLA  PTSUNNY   81  77  88 SW3       29.98R
MILTON         LGT RAIN  78  77  96 E8        30.00S FOG
WHTNG S FIELD  LGT RAIN  81  79  94 E12       30.01R FOG


CITY           SKY/WX    TMP DP  RH WIND       PRES   REMARKS
WALNUT HILL*   NOT AVBL
JAY*           NOT AVBL
CRESTVIEW      LGT RAIN  78  76  93 E5        30.04R FOG
VALPARAISO     NOT AVBL
DESTIN         CLOUDY    86  78  77 S12G23    30.00R HX  98

$$

MSZ076-079-261500-
INTERIOR SOUTHEAST MISSISSIPPI

CITY           SKY/WX    TMP DP  RH WIND       PRES   REMARKS
LEAKESVILLE*   NOT AVBL
AGRICOLA*      NOT AVBL

$$

MARINE OBSERVATIONS

STATION/POSITION TIME  TEMP    WIND        PRES    WAVE
                       AIR SEA DIR/SP/G            HT/PER
                 (UTC) (F)     (DEG/KT/KT) (MB)    (FT/S)
PASCAGOULA       1300   84     140/  8/ 11 1014.0R
PETIT BOIS ISLND 1300   84     160/ 11/ 15 1014.6R
GRAND BAY        1200   84     140/ 10     1015.0R
KATRINA CUT      1300   83     160/ 16     1014.6S
CEDAR POINT      1300   84     150/ 12     1014.2R
E DAUPHIN ISLAND 1300   83     160/ 14/ 15 1013.9R
MIDDLE BAY LIGHT 1300   81      80/ 11     1014.2R
USCG MOBILE BAY  1300   80 86   90/  8/ 11 1015.5R
STATE DOCKS      1300   80 88              1014.8R
MEAHER PARK      1300   80      80/  5     1014.9R
WEEKS BAY        1200   78                   N/A
FORT MORGAN      1300   81     170/ 17/ 19 1013.7R
12 S ORANGE BCH  1350   81 87  200/ 17/ 21 1014.9R   4/ 6
PENSACOLA BAY    1300   81 87   70/  4/  9 1015.3R
64 S DAUPHIN ISL 1300   83 87  220/ 16/ 21 1014.5R
67 S FORT MORGAN 1230   81     230/ 23     1014.6S

$$

SELECTED LOCATIONS ACROSS THE REGION

CITY           SKY/WX    TMP DP  RH WIND       PRES   REMARKS
NEW ORLEANS    PTSUNNY   85  75  72 NE5       29.93S
GULFPORT       CLOUDY    81  77  88 E8        29.94F
PASCAGOULA AP  PTSUNNY   82  80  94 E3        29.96R
PASCAGOULA*    NOT AVBL
HATTIESBURG    PTSUNNY   81  76  84 E6        30.00R
LAUREL         MOSUNNY   81  73  78 NE8       30.01R
MERIDIAN       SUNNY     85  74  69 VRB5      30.02S
JACKSON        SUNNY     83  74  74 E9        29.99F
MONTGOMERY     SUNNY     84  74  71 E9        30.05S
TROY           SUNNY     83  74  74 SE9       30.05S
KINSTON*       NOT AVBL
GENEVA*        NOT AVBL
ASHFORD*       NOT AVBL
DOTHAN         MOSUNNY   82  75  79 SE7       30.09S
PANAMA CITY    PTSUNNY   83  77  82 E8        30.01S

$$





USA.gov is the U.S. government's official web portal to all federal, state and local government web resources and services.